,,,PA_Meas_PMT16A,,PR_Meas_QMR101_102,,RH_Meas_QMH101,,SR_Meas_QMS101,,TA_Meas_QMH101,,GenWind,,GenWind,
date,time,status,PA,status,PR,status,RH,status,SR,status,TA,status,DirAvg,status,SpdAvg,
2014-03-14, 00:00:05,VALID,1011.52,VALID,0,INVALID,109.567,VALID,0,VALID,22.332,VALID,358,VALID,0,
2014-03-14, 00:01:05,VALID,1011.52,VALID,0,INVALID,109.582,VALID,0,VALID,22.332,VALID,358,VALID,0,
2014-03-14, 00:02:05,VALID,1011.47,VALID,0,INVALID,109.552,VALID,0,VALID,22.3108,VALID,358,VALID,0,
2014-03-14, 00:03:05,VALID,1011.46,VALID,0,INVALID,109.559,VALID,0,VALID,22.3108,VALID,358,VALID,0,
2014-03-14, 00:04:05,VALID,1011.46,VALID,0,INVALID,109.567,VALID,0,VALID,22.3125,VALID,358,VALID,0,
2014-03-14, 00:05:05,VALID,1011.44,VALID,0,INVALID,109.574,VALID,0,VALID,22.3125,VALID,358,VALID,0,
2014-03-14, 00:06:05,VALID,1011.42,VALID,0,INVALID,109.552,VALID,0,VALID,22.3108,VALID,358,VALID,0,
2014-03-14, 00:07:05,VALID,1011.43,VALID,0,INVALID,109.544,VALID,0,VALID,22.2914,VALID,358,VALID,0,
2014-03-14, 00:08:05,VALID,1011.39,VALID,0,INVALID,109.544,VALID,0,VALID,22.2914,VALID,358,VALID,0,
2014-03-14, 00:09:05,VALID,1011.41,VALID,0,INVALID,109.536,VALID,0,VALID,22.3125,VALID,358,VALID,0,
2014-03-14, 00:10:05,VALID,1011.39,VALID,0,INVALID,109.544,VALID,0,VALID,22.3125,VALID,358,VALID,0,
2014-03-14, 00:11:05,VALID,1011.41,VALID,0,INVALID,109.506,VALID,0,VALID,22.2914,VALID,358,VALID,0,
2014-03-14, 00:12:05,VALID,1011.43,VALID,0,INVALID,109.506,VALID,0.112112,VALID,22.3091,VALID,358,VALID,0,
2014-03-14, 00:13:05,VALID,1011.44,VALID,0,INVALID,109.498,VALID,0,VALID,22.3108,VALID,358,VALID,0,
2014-03-14, 00:14:05,VALID,1011.42,VALID,0,INVALID,109.483,VALID,0,VALID,22.3303,VALID,358,VALID,0,
2014-03-14, 00:15:05,VALID,1011.42,VALID,0,INVALID,109.452,VALID,0.112112,VALID,22.3498,VALID,358,VALID,0,
2014-03-14, 00:16:05,VALID,1011.44,VALID,0,INVALID,109.452,VALID,0,VALID,22.3481,VALID,358,VALID,0,
2014-03-14, 00:17:05,VALID,1011.43,VALID,0,INVALID,109.46,VALID,0.112112,VALID,22.3498,VALID,358,VALID,0,
2014-03-14, 00:18:05,VALID,1011.46,VALID,0,INVALID,109.46,VALID,0.112112,VALID,22.3481,VALID,358,VALID,0,
2014-03-14, 00:19:05,VALID,1011.45,VALID,0,INVALID,109.407,VALID,0,VALID,22.387,VALID,358,VALID,0,
2014-03-14, 00:20:05,VALID,1011.5,VALID,0,INVALID,109.414,VALID,0,VALID,22.4082,VALID,358,VALID,0,
2014-03-14, 00:21:05,VALID,1011.46,VALID,0,INVALID,109.445,VALID,0,VALID,22.387,VALID,358,VALID,0,
2014-03-14, 00:22:05,VALID,1011.44,VALID,0,INVALID,109.452,VALID,0.112112,VALID,22.3676,VALID,358,VALID,0,
2014-03-14, 00:23:05,VALID,1011.45,VALID,0,INVALID,109.46,VALID,0,VALID,22.3676,VALID,358,VALID,0,
2014-03-14, 00:24:05,VALID,1011.43,VALID,0,INVALID,109.468,VALID,0,VALID,22.3693,VALID,358,VALID,0,
2014-03-14, 00:25:05,VALID,1011.4,VALID,0,INVALID,109.46,VALID,0,VALID,22.3286,VALID,358,VALID,0,
2014-03-14, 00:26:05,VALID,1011.38,VALID,0,INVALID,109.43,VALID,0,VALID,22.3676,VALID,358,VALID,0,
2014-03-14, 00:27:05,VALID,1011.39,VALID,0,INVALID,109.376,VALID,0,VALID,22.426,VALID,358,VALID,0,
2014-03-14, 00:28:05,VALID,1011.4,VALID,0,INVALID,109.369,VALID,0,VALID,22.4667,VALID,358,VALID,0,
2014-03-14, 00:29:05,VALID,1011.41,VALID,0,INVALID,109.361,VALID,0,VALID,22.4667,VALID,358,VALID,0,
2014-03-14, 00:30:05,VALID,1011.4,VALID,0,INVALID,109.384,VALID,0,VALID,22.4472,VALID,358,VALID,0,
2014-03-14, 00:31:05,VALID,1011.41,VALID,0,INVALID,109.353,VALID,0,VALID,22.4667,VALID,358,VALID,0,
2014-03-14, 00:32:05,VALID,1011.37,VALID,0,INVALID,109.33,VALID,0,VALID,22.4844,VALID,358,VALID,0.110937,
2014-03-14, 00:33:05,VALID,1011.39,VALID,0,INVALID,109.308,VALID,0,VALID,22.5039,VALID,358,VALID,0,
2014-03-14, 00:34:05,VALID,1011.39,VALID,0,INVALID,109.323,VALID,0.112112,VALID,22.5234,VALID,358,VALID,0,
2014-03-14, 00:35:05,VALID,1011.34,VALID,0,INVALID,109.308,VALID,0.112112,VALID,22.5234,VALID,358,VALID,0,
2014-03-14, 00:36:05,VALID,1011.32,VALID,0,INVALID,109.3,VALID,0,VALID,22.5429,VALID,358,VALID,0,
2014-03-14, 00:37:05,VALID,1011.3,VALID,0,INVALID,109.315,VALID,0,VALID,22.564,VALID,358,VALID,0,
2014-03-14, 00:38:05,VALID,1011.31,VALID,0,INVALID,109.308,VALID,0,VALID,22.5429,VALID,358,VALID,0,
2014-03-14, 00:39:05,VALID,1011.31,VALID,0,INVALID,109.33,VALID,0,VALID,22.5234,VALID,358,VALID,0,
2014-03-14, 00:40:05,VALID,1011.31,VALID,0,INVALID,109.361,VALID,0,VALID,22.5251,VALID,358,VALID,0,
2014-03-14, 00:41:05,VALID,1011.28,VALID,0,INVALID,109.361,VALID,0,VALID,22.4844,VALID,358,VALID,0,
2014-03-14, 00:42:05,VALID,1011.28,VALID,0,INVALID,109.346,VALID,0,VALID,22.4861,VALID,358,VALID,0,
2014-03-14, 00:43:05,VALID,1011.24,VALID,0,INVALID,109.369,VALID,0,VALID,22.4667,VALID,358,VALID,0,
2014-03-14, 00:44:05,VALID,1011.24,VALID,0,INVALID,109.361,VALID,0,VALID,22.4455,VALID,358,VALID,0,
2014-03-14, 00:45:05,VALID,1011.22,VALID,0,INVALID,109.33,VALID,0.112112,VALID,22.4455,VALID,358,VALID,0,
2014-03-14, 00:46:05,VALID,1011.2,VALID,0,INVALID,109.308,VALID,0,VALID,22.5251,VALID,358,VALID,0,
2014-03-14, 00:47:05,VALID,1011.17,VALID,0,INVALID,109.285,VALID,0,VALID,22.5446,VALID,358,VALID,0,
2014-03-14, 00:48:05,VALID,1011.11,VALID,0,INVALID,109.262,VALID,0,VALID,22.5429,VALID,358,VALID,0,
2014-03-14, 00:49:05,VALID,1011.12,VALID,0,INVALID,109.254,VALID,0,VALID,22.564,VALID,358,VALID,0,
2014-03-14, 00:50:05,VALID,1011.11,VALID,0,INVALID,109.285,VALID,0,VALID,22.5429,VALID,358,VALID,0,
2014-03-14, 00:51:05,VALID,1011.11,VALID,0,INVALID,109.262,VALID,0,VALID,22.5623,VALID,358,VALID,0,
2014-03-14, 00:52:05,VALID,1011.1,VALID,0,INVALID,109.292,VALID,0,VALID,22.5446,VALID,358,VALID,0,
2014-03-14, 00:53:05,VALID,1011.1,VALID,0,INVALID,109.308,VALID,0,VALID,22.5056,VALID,358,VALID,0,
2014-03-14, 00:54:05,VALID,1011.09,VALID,0,INVALID,109.353,VALID,0.112112,VALID,22.465,VALID,358,VALID,0,
2014-03-14, 00:55:05,VALID,1011.08,VALID,0,INVALID,109.323,VALID,0.112112,VALID,22.4667,VALID,358,VALID,0,
2014-03-14, 00:56:05,VALID,1011.07,VALID,0,INVALID,109.33,VALID,0.112112,VALID,22.426,VALID,358,VALID,0,
2014-03-14, 00:57:05,VALID,1011.09,VALID,0,INVALID,109.353,VALID,0.112112,VALID,22.426,VALID,358,VALID,0,
2014-03-14, 00:58:05,VALID,1011.1,VALID,0,INVALID,109.323,VALID,0,VALID,22.4472,VALID,358,VALID,0,
2014-03-14, 00:59:05,VALID,1011.09,VALID,0,INVALID,109.308,VALID,0,VALID,22.426,VALID,358,VALID,0,
2014-03-14, 01:00:05,VALID,1011.09,VALID,0,INVALID,109.315,VALID,0,VALID,22.4065,VALID,358,VALID,0,
2014-03-14, 01:01:05,VALID,1011.07,VALID,0,INVALID,109.323,VALID,0.112112,VALID,22.4065,VALID,358,VALID,0,
2014-03-14, 01:02:05,VALID,1011.08,VALID,0,INVALID,109.361,VALID,0,VALID,22.387,VALID,358,VALID,0,
2014-03-14, 01:03:05,VALID,1011.04,VALID,0,INVALID,109.323,VALID,0,VALID,22.4277,VALID,358,VALID,0,
2014-03-14, 01:04:05,VALID,1011.06,VALID,0,INVALID,109.308,VALID,0.112112,VALID,22.387,VALID,358,VALID,0,
2014-03-14, 01:05:05,VALID,1011,VALID,0,INVALID,109.33,VALID,0,VALID,22.3887,VALID,358,VALID,0,
2014-03-14, 01:06:05,VALID,1010.94,VALID,0,INVALID,109.323,VALID,0.112112,VALID,22.3676,VALID,358,VALID,0,
2014-03-14, 01:07:05,VALID,1010.95,VALID,0,INVALID,109.353,VALID,0,VALID,22.3693,VALID,358,VALID,0,
2014-03-14, 01:08:05,VALID,1010.9,VALID,0,INVALID,109.33,VALID,0.112112,VALID,22.3481,VALID,358,VALID,0,
2014-03-14, 01:09:05,VALID,1010.88,VALID,0,INVALID,109.369,VALID,0,VALID,22.3303,VALID,358,VALID,0,
2014-03-14, 01:10:05,VALID,1010.87,VALID,0,INVALID,109.369,VALID,0,VALID,22.2897,VALID,358,VALID,0,
2014-03-14, 01:11:05,VALID,1010.85,VALID,0,INVALID,109.384,VALID,0.112112,VALID,22.2702,VALID,358,VALID,0,
2014-03-14, 01:12:05,VALID,1010.87,VALID,0,INVALID,109.369,VALID,0,VALID,22.2719,VALID,358,VALID,0,
2014-03-14, 01:13:05,VALID,1010.86,VALID,0,INVALID,109.361,VALID,0,VALID,22.2719,VALID,358,VALID,0,
2014-03-14, 01:14:05,VALID,1010.84,VALID,0,INVALID,109.376,VALID,0,VALID,22.2719,VALID,358,VALID,0,
2014-03-14, 01:15:05,VALID,1010.85,VALID,0,INVALID,109.376,VALID,0,VALID,22.2507,VALID,358,VALID,0,
2014-03-14, 01:16:05,VALID,1010.8,VALID,0,INVALID,109.376,VALID,0,VALID,22.2524,VALID,358,VALID,0,
2014-03-14, 01:17:05,VALID,1010.78,VALID,0,INVALID,109.369,VALID,0,VALID,22.2312,VALID,358,VALID,0,
2014-03-14, 01:18:05,VALID,1010.79,VALID,0,INVALID,109.369,VALID,0,VALID,22.2329,VALID,358,VALID,0,
2014-03-14, 01:19:05,VALID,1010.8,VALID,0,INVALID,109.376,VALID,0,VALID,22.194,VALID,358,VALID,0,
2014-03-14, 01:20:05,VALID,1010.81,VALID,0,INVALID,109.33,VALID,0,VALID,22.2118,VALID,358,VALID,0,
2014-03-14, 01:21:05,VALID,1010.77,VALID,0,INVALID,109.33,VALID,0,VALID,22.2329,VALID,358,VALID,0,
2014-03-14, 01:22:05,VALID,1010.76,VALID,0,INVALID,109.33,VALID,0,VALID,22.2329,VALID,358,VALID,0,
2014-03-14, 01:23:05,VALID,1010.75,VALID,0,INVALID,109.353,VALID,0,VALID,22.1923,VALID,358,VALID,0,
2014-03-14, 01:24:05,VALID,1010.72,VALID,0,INVALID,109.369,VALID,0,VALID,22.1728,VALID,358,VALID,0,
2014-03-14, 01:25:05,VALID,1010.77,VALID,0,INVALID,109.407,VALID,0,VALID,22.1339,VALID,358,VALID,0,
2014-03-14, 01:26:05,VALID,1010.74,VALID,0,INVALID,109.422,VALID,0,VALID,22.1355,VALID,358,VALID,0,
2014-03-14, 01:27:05,VALID,1010.75,VALID,0,INVALID,109.376,VALID,0,VALID,22.1355,VALID,358,VALID,0,
2014-03-14, 01:28:05,VALID,1010.79,VALID,0,INVALID,109.376,VALID,0,VALID,22.1355,VALID,358,VALID,0,
2014-03-14, 01:29:05,VALID,1010.74,VALID,0,INVALID,109.384,VALID,0,VALID,22.1161,VALID,358,VALID,0,
2014-03-14, 01:30:05,VALID,1010.75,VALID,0,INVALID,109.399,VALID,0,VALID,22.1161,VALID,358,VALID,0,
2014-03-14, 01:31:05,VALID,1010.76,VALID,0,INVALID,109.369,VALID,0,VALID,22.1161,VALID,358,VALID,0,
2014-03-14, 01:32:05,VALID,1010.74,VALID,0,INVALID,109.338,VALID,0,VALID,22.1355,VALID,358,VALID,0,
2014-03-14, 01:33:05,VALID,1010.74,VALID,0,INVALID,109.323,VALID,0,VALID,22.155,VALID,358,VALID,0,
2014-03-14, 01:34:05,VALID,1010.72,VALID,0,INVALID,109.269,VALID,0,VALID,22.1745,VALID,358,VALID,0,
2014-03-14, 01:35:05,VALID,1010.74,VALID,0,INVALID,109.254,VALID,0,VALID,22.2134,VALID,358,VALID,0,
2014-03-14, 01:36:05,VALID,1010.73,VALID,0,INVALID,109.239,VALID,0,VALID,22.2118,VALID,358,VALID,0,
2014-03-14, 01:37:05,VALID,1010.72,VALID,0,INVALID,109.247,VALID,0,VALID,22.2329,VALID,358,VALID,0,
2014-03-14, 01:38:05,VALID,1010.72,VALID,0,INVALID,109.262,VALID,0,VALID,22.2524,VALID,358,VALID,0,
2014-03-14, 01:39:05,VALID,1010.68,VALID,0,INVALID,109.224,VALID,0,VALID,22.2524,VALID,358,VALID,0,
2014-03-14, 01:40:05,VALID,1010.67,VALID,0,INVALID,109.216,VALID,0,VALID,22.2312,VALID,358,VALID,0,
2014-03-14, 01:41:05,VALID,1010.67,VALID,0,INVALID,109.231,VALID,0,VALID,22.2524,VALID,358,VALID,0,
2014-03-14, 01:42:05,VALID,1010.66,VALID,0,INVALID,109.292,VALID,0,VALID,22.2329,VALID,358,VALID,0,
2014-03-14, 01:43:05,VALID,1010.64,VALID,0,INVALID,109.338,VALID,0,VALID,22.1745,VALID,358,VALID,0,
2014-03-14, 01:44:05,VALID,1010.66,VALID,0,INVALID,109.353,VALID,0,VALID,22.1355,VALID,358,VALID,0,
2014-03-14, 01:45:05,VALID,1010.67,VALID,0,INVALID,109.346,VALID,0,VALID,22.1161,VALID,358,VALID,0,
2014-03-14, 01:46:05,VALID,1010.67,VALID,0,INVALID,109.33,VALID,0,VALID,22.0754,VALID,358,VALID,0,
2014-03-14, 01:47:05,VALID,1010.69,VALID,0,INVALID,109.338,VALID,0,VALID,22.0771,VALID,358,VALID,0,
2014-03-14, 01:48:05,VALID,1010.66,VALID,0,INVALID,109.292,VALID,0,VALID,22.0966,VALID,358,VALID,0,
2014-03-14, 01:49:05,VALID,1010.66,VALID,0,INVALID,109.269,VALID,0,VALID,22.1161,VALID,358,VALID,0,
2014-03-14, 01:50:05,VALID,1010.65,VALID,0,INVALID,109.277,VALID,0,VALID,22.0949,VALID,358,VALID,0,
2014-03-14, 01:51:05,VALID,1010.62,VALID,0,INVALID,109.285,VALID,0,VALID,22.0949,VALID,358,VALID,0,
2014-03-14, 01:52:05,VALID,1010.64,VALID,0,INVALID,109.292,VALID,0,VALID,22.0966,VALID,358,VALID,0,
2014-03-14, 01:53:05,VALID,1010.63,VALID,0,INVALID,109.292,VALID,0,VALID,22.1355,VALID,358,VALID,0,
2014-03-14, 01:54:05,VALID,1010.61,VALID,0,INVALID,109.262,VALID,0,VALID,22.155,VALID,358,VALID,0,
2014-03-14, 01:55:05,VALID,1010.59,VALID,0,INVALID,109.231,VALID,0,VALID,22.1533,VALID,358,VALID,0,
2014-03-14, 01:56:05,VALID,1010.58,VALID,0,INVALID,109.208,VALID,0,VALID,22.1923,VALID,358,VALID,0.0414063,
2014-03-14, 01:57:05,VALID,1010.57,VALID,0,INVALID,109.17,VALID,0,VALID,22.2312,VALID,358,VALID,0,
2014-03-14, 01:58:05,VALID,1010.57,VALID,0,INVALID,109.17,VALID,0,VALID,22.2312,VALID,358,VALID,0,
2014-03-14, 01:59:05,VALID,1010.59,VALID,0,INVALID,109.163,VALID,0.112112,VALID,22.2507,VALID,358,VALID,0.189453,
2014-03-14, 02:00:05,VALID,1010.57,VALID,0,INVALID,109.109,VALID,0,VALID,22.3108,VALID,358,VALID,0.347656,
2014-03-14, 02:01:05,VALID,1010.55,VALID,0,INVALID,109.094,VALID,0,VALID,22.3498,VALID,358,VALID,0.213281,
2014-03-14, 02:02:05,VALID,1010.55,VALID,0,INVALID,109.125,VALID,0.112112,VALID,22.3303,VALID,358,VALID,0.367188,
2014-03-14, 02:03:05,VALID,1010.53,VALID,0,INVALID,109.155,VALID,0,VALID,22.3108,VALID,358,VALID,0.198437,
2014-03-14, 02:04:05,VALID,1010.5,VALID,0,INVALID,109.109,VALID,0,VALID,22.3091,VALID,358,VALID,0.320313,
2014-03-14, 02:05:05,VALID,1010.5,VALID,0,INVALID,109.109,VALID,0,VALID,22.3498,VALID,358,VALID,0.288281,
2014-03-14, 02:06:05,VALID,1010.52,VALID,0,INVALID,109.132,VALID,0,VALID,22.3498,VALID,358,VALID,0.0523437,
2014-03-14, 02:07:05,VALID,1010.51,VALID,0,INVALID,109.132,VALID,0,VALID,22.3091,VALID,358,VALID,0.0535156,
2014-03-14, 02:08:05,VALID,1010.52,VALID,0,INVALID,109.094,VALID,0.112112,VALID,22.3286,VALID,358,VALID,0.294531,
2014-03-14, 02:09:05,VALID,1010.5,VALID,0,INVALID,109.109,VALID,0,VALID,22.3498,VALID,358,VALID,0,
2014-03-14, 02:10:05,VALID,1010.49,VALID,0,INVALID,109.109,VALID,0,VALID,22.3303,VALID,358,VALID,0.108594,
2014-03-14, 02:11:05,VALID,1010.49,VALID,0,INVALID,109.086,VALID,0.112112,VALID,22.3286,VALID,358,VALID,0,
2014-03-14, 02:12:05,VALID,1010.49,VALID,0,INVALID,109.117,VALID,0.112112,VALID,22.3286,VALID,358,VALID,0,
2014-03-14, 02:13:05,VALID,1010.49,VALID,0,INVALID,109.132,VALID,0.112112,VALID,22.3091,VALID,358,VALID,0,
2014-03-14, 02:14:05,VALID,1010.52,VALID,0,INVALID,109.125,VALID,0.112112,VALID,22.3303,VALID,358,VALID,0,
2014-03-14, 02:15:05,VALID,1010.51,VALID,0,INVALID,109.056,VALID,0,VALID,22.3498,VALID,358,VALID,0,
2014-03-14, 02:16:05,VALID,1010.52,VALID,0,INVALID,109.048,VALID,0,VALID,22.3887,VALID,357,VALID,0,
2014-03-14, 02:17:05,VALID,1010.5,VALID,0,INVALID,109.064,VALID,0,VALID,22.3887,VALID,358,VALID,0,
2014-03-14, 02:18:05,VALID,1010.5,VALID,0,INVALID,109.079,VALID,0,VALID,22.3887,VALID,358,VALID,0,
2014-03-14, 02:19:05,VALID,1010.46,VALID,0,INVALID,109.102,VALID,0,VALID,22.3693,VALID,358,VALID,0,
2014-03-14, 02:20:05,VALID,1010.47,VALID,0,INVALID,109.086,VALID,0.112112,VALID,22.3676,VALID,358,VALID,0,
2014-03-14, 02:21:05,VALID,1010.48,VALID,0,INVALID,109.079,VALID,0.112112,VALID,22.3693,VALID,358,VALID,0,
2014-03-14, 02:22:05,VALID,1010.49,VALID,0,INVALID,109.117,VALID,0.112112,VALID,22.3481,VALID,358,VALID,0,
2014-03-14, 02:23:05,VALID,1010.5,VALID,0,INVALID,109.079,VALID,0,VALID,22.3676,VALID,358,VALID,0,
2014-03-14, 02:24:05,VALID,1010.46,VALID,0,INVALID,109.033,VALID,0.112112,VALID,22.426,VALID,358,VALID,0,
2014-03-14, 02:25:04,VALID,1010.48,VALID,0,INVALID,109.025,VALID,0,VALID,22.4455,VALID,358,VALID,0,
2014-03-14, 02:26:04,VALID,1010.46,VALID,0,INVALID,109.01,VALID,0,VALID,22.4667,VALID,358,VALID,0,
2014-03-14, 02:27:04,VALID,1010.49,VALID,0,INVALID,109.003,VALID,0,VALID,22.465,VALID,358,VALID,0,
2014-03-14, 02:28:04,VALID,1010.47,VALID,0,VALID,104,VALID,0,VALID,22.465,VALID,358,VALID,0,
2014-03-14, 02:29:04,VALID,1010.48,VALID,0,VALID,104,VALID,0.112112,VALID,22.4861,VALID,358,VALID,0,
2014-03-14, 02:30:04,VALID,1010.48,VALID,0,VALID,104,VALID,0.112112,VALID,22.4844,VALID,358,VALID,0,
2014-03-14, 02:31:04,VALID,1010.49,VALID,0,INVALID,109.018,VALID,0,VALID,22.4861,VALID,358,VALID,0,
2014-03-14, 02:32:04,VALID,1010.47,VALID,0,INVALID,109.025,VALID,0,VALID,22.465,VALID,358,VALID,0,
2014-03-14, 02:33:04,VALID,1010.44,VALID,0,INVALID,109.01,VALID,0,VALID,22.4667,VALID,358,VALID,0,
2014-03-14, 02:34:04,VALID,1010.45,VALID,0,INVALID,109.025,VALID,0.112112,VALID,22.465,VALID,358,VALID,0,
2014-03-14, 02:35:04,VALID,1010.41,VALID,0,INVALID,109.018,VALID,0.112112,VALID,22.465,VALID,358,VALID,0,
2014-03-14, 02:36:04,VALID,1010.44,VALID,0,INVALID,109.01,VALID,0.112112,VALID,22.465,VALID,358,VALID,0,
2014-03-14, 02:37:04,VALID,1010.39,VALID,0,INVALID,109.003,VALID,0.112112,VALID,22.4667,VALID,358,VALID,0,
2014-03-14, 02:38:04,VALID,1010.36,VALID,0,INVALID,109.003,VALID,0,VALID,22.4455,VALID,358,VALID,0,
2014-03-14, 02:39:04,VALID,1010.35,VALID,0,VALID,104,VALID,0.112112,VALID,22.4472,VALID,358,VALID,0,
2014-03-14, 02:40:04,VALID,1010.35,VALID,0,INVALID,109.025,VALID,0.112112,VALID,22.426,VALID,358,VALID,0,
2014-03-14, 02:41:04,VALID,1010.34,VALID,0,INVALID,109.064,VALID,0.112112,VALID,22.4082,VALID,358,VALID,0,
2014-03-14, 02:42:04,VALID,1010.31,VALID,0,INVALID,109.041,VALID,0,VALID,22.3887,VALID,358,VALID,0,
2014-03-14, 02:43:04,VALID,1010.32,VALID,0,INVALID,109.048,VALID,0,VALID,22.3887,VALID,358,VALID,0,
2014-03-14, 02:44:04,VALID,1010.33,VALID,0,VALID,104,VALID,0,VALID,22.3887,VALID,358,VALID,0,
2014-03-14, 02:45:04,VALID,1010.29,VALID,0,VALID,104,VALID,0,VALID,22.4489,VALID,358,VALID,0,
2014-03-14, 02:46:04,VALID,1010.28,VALID,0,VALID,104,VALID,0,VALID,22.4684,VALID,358,VALID,0,
2014-03-14, 02:47:04,VALID,1010.28,VALID,0,VALID,104,VALID,0,VALID,22.4684,VALID,358,VALID,0,
2014-03-14, 02:48:04,VALID,1010.28,VALID,0,VALID,104,VALID,0,VALID,22.4684,VALID,358,VALID,0,
2014-03-14, 02:49:04,VALID,1010.3,VALID,0,VALID,104,VALID,0,VALID,22.4667,VALID,358,VALID,0,
2014-03-14, 02:50:04,VALID,1010.29,VALID,0,VALID,104,VALID,0,VALID,22.4878,VALID,358,VALID,0,
2014-03-14, 02:51:04,VALID,1010.27,VALID,0,VALID,104,VALID,0,VALID,22.4861,VALID,358,VALID,0,
2014-03-14, 02:52:04,VALID,1010.27,VALID,0,VALID,104,VALID,0,VALID,22.4684,VALID,358,VALID,0,
2014-03-14, 02:53:04,VALID,1010.28,VALID,0,INVALID,109.056,VALID,0,VALID,22.4099,VALID,358,VALID,0,
2014-03-14, 02:54:04,VALID,1010.27,VALID,0,INVALID,109.056,VALID,0,VALID,22.3904,VALID,358,VALID,0,
2014-03-14, 02:55:04,VALID,1010.27,VALID,0,INVALID,109.102,VALID,0,VALID,22.3108,VALID,358,VALID,0,
2014-03-14, 02:56:04,VALID,1010.28,VALID,0,INVALID,109.147,VALID,0,VALID,22.2736,VALID,358,VALID,0,
2014-03-14, 02:57:04,VALID,1010.25,VALID,0,INVALID,109.17,VALID,0.112112,VALID,22.1923,VALID,358,VALID,0,
2014-03-14, 02:58:04,VALID,1010.26,VALID,0,INVALID,109.186,VALID,0,VALID,22.155,VALID,358,VALID,0,
2014-03-14, 02:59:04,VALID,1010.26,VALID,0,INVALID,109.147,VALID,0.112112,VALID,22.1161,VALID,358,VALID,0,
2014-03-14, 03:00:04,VALID,1010.24,VALID,0,INVALID,109.132,VALID,0,VALID,22.0966,VALID,358,VALID,0,
2014-03-14, 03:01:04,VALID,1010.22,VALID,0,INVALID,109.102,VALID,0.112112,VALID,22.0966,VALID,358,VALID,0,
2014-03-14, 03:02:04,VALID,1010.22,VALID,0,INVALID,109.17,VALID,0,VALID,22.0771,VALID,358,VALID,0,
2014-03-14, 03:03:04,VALID,1010.22,VALID,0,INVALID,109.163,VALID,0,VALID,22.0382,VALID,358,VALID,0,
2014-03-14, 03:04:04,VALID,1010.25,VALID,0,INVALID,109.163,VALID,0,VALID,21.9992,VALID,358,VALID,0,
2014-03-14, 03:05:04,VALID,1010.22,VALID,0,INVALID,109.224,VALID,0,VALID,21.9797,VALID,358,VALID,0,
2014-03-14, 03:06:04,VALID,1010.21,VALID,0,INVALID,109.147,VALID,0,VALID,21.9781,VALID,358,VALID,0,
2014-03-14, 03:07:04,VALID,1010.19,VALID,0,INVALID,109.102,VALID,0,VALID,21.9975,VALID,358,VALID,0,
2014-03-14, 03:08:04,VALID,1010.23,VALID,0,INVALID,109.079,VALID,0,VALID,22.0382,VALID,358,VALID,0,
2014-03-14, 03:09:04,VALID,1010.2,VALID,0,VALID,104,VALID,0.112112,VALID,22.0966,VALID,358,VALID,0,
2014-03-14, 03:10:04,VALID,1010.22,VALID,0,INVALID,109.018,VALID,0,VALID,22.0754,VALID,358,VALID,0,
2014-03-14, 03:11:04,VALID,1010.21,VALID,0,INVALID,109.056,VALID,0,VALID,22.0771,VALID,358,VALID,0,
2014-03-14, 03:12:04,VALID,1010.22,VALID,0,INVALID,109.064,VALID,0,VALID,22.0966,VALID,358,VALID,0,
2014-03-14, 03:13:04,VALID,1010.22,VALID,0,INVALID,109.025,VALID,0.112112,VALID,22.1161,VALID,358,VALID,0,
2014-03-14, 03:14:04,VALID,1010.2,VALID,0,INVALID,109.018,VALID,0,VALID,22.0949,VALID,358,VALID,0,
2014-03-14, 03:15:04,VALID,1010.21,VALID,0,VALID,104,VALID,0.112112,VALID,22.1161,VALID,358,VALID,0,
2014-03-14, 03:16:04,VALID,1010.21,VALID,0,VALID,104,VALID,0.112112,VALID,22.1355,VALID,358,VALID,0,
2014-03-14, 03:17:04,VALID,1010.2,VALID,0,VALID,104,VALID,0,VALID,22.155,VALID,358,VALID,0,
2014-03-14, 03:18:04,VALID,1010.2,VALID,0,VALID,104,VALID,0,VALID,22.1745,VALID,358,VALID,0,
2014-03-14, 03:19:04,VALID,1010.24,VALID,0,VALID,104,VALID,0.112112,VALID,22.2134,VALID,358,VALID,0,
2014-03-14, 03:20:04,VALID,1010.24,VALID,0,VALID,104,VALID,0,VALID,22.2118,VALID,358,VALID,0,
2014-03-14, 03:21:04,VALID,1010.27,VALID,0,VALID,104,VALID,0.112112,VALID,22.2118,VALID,358,VALID,0,
2014-03-14, 03:22:04,VALID,1010.27,VALID,0,VALID,104,VALID,0.112112,VALID,22.2312,VALID,358,VALID,0,
2014-03-14, 03:23:04,VALID,1010.25,VALID,0,VALID,104,VALID,0,VALID,22.2507,VALID,358,VALID,0,
2014-03-14, 03:24:04,VALID,1010.27,VALID,0,VALID,104,VALID,0,VALID,22.2719,VALID,358,VALID,0,
2014-03-14, 03:25:04,VALID,1010.28,VALID,0,VALID,104,VALID,0.112112,VALID,22.2719,VALID,358,VALID,0,
2014-03-14, 03:26:04,VALID,1010.27,VALID,0,VALID,104,VALID,0.112112,VALID,22.2719,VALID,358,VALID,0,
2014-03-14, 03:27:04,VALID,1010.28,VALID,0,VALID,104,VALID,0,VALID,22.2702,VALID,358,VALID,0,
2014-03-14, 03:28:04,VALID,1010.25,VALID,0,VALID,104,VALID,0.112112,VALID,22.2702,VALID,358,VALID,0,
2014-03-14, 03:29:04,VALID,1010.26,VALID,0,VALID,104,VALID,0.112112,VALID,22.2897,VALID,358,VALID,0,
2014-03-14, 03:30:04,VALID,1010.25,VALID,0,VALID,104,VALID,0,VALID,22.3108,VALID,358,VALID,0,
2014-03-14, 03:31:04,VALID,1010.26,VALID,0,VALID,104,VALID,0,VALID,22.2897,VALID,358,VALID,0,
2014-03-14, 03:32:04,VALID,1010.26,VALID,0,VALID,104,VALID,0,VALID,22.2702,VALID,358,VALID,0,
2014-03-14, 03:33:04,VALID,1010.22,VALID,0,VALID,104,VALID,0.112112,VALID,22.2507,VALID,358,VALID,0,
2014-03-14, 03:34:04,VALID,1010.21,VALID,0,INVALID,109.01,VALID,0,VALID,22.2329,VALID,358,VALID,0,
2014-03-14, 03:35:04,VALID,1010.21,VALID,0,INVALID,109.018,VALID,0.112112,VALID,22.194,VALID,358,VALID,0,
2014-03-14, 03:36:04,VALID,1010.21,VALID,0,INVALID,109.041,VALID,0,VALID,22.155,VALID,358,VALID,0,
2014-03-14, 03:37:04,VALID,1010.19,VALID,0,VALID,104,VALID,0.112112,VALID,22.1339,VALID,358,VALID,0,
2014-03-14, 03:38:04,VALID,1010.2,VALID,0,VALID,104,VALID,0,VALID,22.155,VALID,358,VALID,0,
2014-03-14, 03:39:04,VALID,1010.22,VALID,0,VALID,104,VALID,0,VALID,22.1745,VALID,358,VALID,0,
2014-03-14, 03:40:04,VALID,1010.22,VALID,0,VALID,104,VALID,0.112112,VALID,22.1533,VALID,358,VALID,0,
2014-03-14, 03:41:04,VALID,1010.22,VALID,0,VALID,104,VALID,0,VALID,22.1339,VALID,358,VALID,0,
2014-03-14, 03:42:04,VALID,1010.21,VALID,0,INVALID,109.01,VALID,0,VALID,22.1161,VALID,358,VALID,0,
2014-03-14, 03:43:04,VALID,1010.2,VALID,0,VALID,104,VALID,0,VALID,22.0949,VALID,358,VALID,0,
2014-03-14, 03:44:04,VALID,1010.22,VALID,0,VALID,104,VALID,0,VALID,22.1161,VALID,358,VALID,0,
2014-03-14, 03:45:04,VALID,1010.19,VALID,0,VALID,104,VALID,0,VALID,22.0949,VALID,358,VALID,0,
2014-03-14, 03:46:04,VALID,1010.18,VALID,0,VALID,104,VALID,0,VALID,22.0966,VALID,358,VALID,0,
2014-03-14, 03:47:04,VALID,1010.17,VALID,0,INVALID,109.025,VALID,0,VALID,22.0365,VALID,358,VALID,0,
2014-03-14, 03:48:04,VALID,1010.17,VALID,0,INVALID,109.041,VALID,0,VALID,21.9975,VALID,358,VALID,0,
2014-03-14, 03:49:04,VALID,1010.17,VALID,0,INVALID,109.056,VALID,0,VALID,21.9781,VALID,358,VALID,0,
2014-03-14, 03:50:04,VALID,1010.17,VALID,0,INVALID,109.025,VALID,0,VALID,21.9992,VALID,358,VALID,0,
2014-03-14, 03:51:04,VALID,1010.17,VALID,0,INVALID,109.01,VALID,0,VALID,21.9797,VALID,358,VALID,0,
2014-03-14, 03:52:04,VALID,1010.14,VALID,0,INVALID,109.018,VALID,0.112112,VALID,21.9797,VALID,358,VALID,0,
2014-03-14, 03:53:04,VALID,1010.16,VALID,0,VALID,104,VALID,0,VALID,21.9992,VALID,358,VALID,0,